Time,TemperatureF,DewpointF,PressureIn,WindDirection,WindDirectionDegrees,WindSpeedMPH,WindSpeedGustMPH,Humidity,HourlyPrecipIn,Conditions,Clouds,dailyrainin,SoftwareType,DateUTC
2013-07-21 00:01:00,73.1,71.0,29.99,SE,142,0.0,0.0,93,0.00,,,0.00,Wunderground v.1.13,2013-07-21 04:01:00,
2013-07-21 00:02:00,73.1,71.0,29.99,SE,142,0.0,0.0,93,0.00,,,0.00,Wunderground v.1.13,2013-07-21 04:02:00,
2013-07-21 00:04:00,73.0,70.9,29.99,SE,142,0.0,0.0,93,0.00,,,0.00,Wunderground v.1.13,2013-07-21 04:04:00,
2013-07-21 00:07:00,72.9,70.8,29.99,SE,142,0.0,0.0,93,0.00,,,0.00,Wunderground v.1.13,2013-07-21 04:07:00,
2013-07-21 00:10:00,72.9,70.8,30.00,SE,142,0.0,0.0,93,0.00,,,0.00,Wunderground v.1.13,2013-07-21 04:10:00,
2013-07-21 00:16:00,72.7,70.6,29.99,SE,142,0.0,0.0,93,0.00,,,0.00,Wunderground v.1.13,2013-07-21 04:16:00,
2013-07-21 00:21:00,72.7,70.6,30.00,SE,142,0.0,0.0,93,0.00,,,0.00,Wunderground v.1.13,2013-07-21 04:21:00,
2013-07-21 00:27:00,72.6,70.5,30.00,SE,142,0.0,0.0,93,0.00,,,0.00,Wunderground v.1.13,2013-07-21 04:27:00,
2013-07-21 00:32:00,72.5,70.4,30.00,SE,142,0.0,0.0,93,0.00,,,0.00,Wunderground v.1.13,2013-07-21 04:32:00,
2013-07-21 00:38:00,72.4,70.3,30.00,SE,142,0.0,0.0,93,0.00,,,0.00,Wunderground v.1.13,2013-07-21 04:38:00,
2013-07-21 00:43:00,72.5,70.7,30.01,SE,142,0.0,0.0,94,0.00,,,0.00,Wunderground v.1.13,2013-07-21 04:43:00,
2013-07-21 00:49:00,72.5,70.7,30.00,SE,142,0.0,0.0,94,0.00,,,0.00,Wunderground v.1.13,2013-07-21 04:49:00,
2013-07-21 00:54:00,72.5,70.7,30.00,SE,142,0.0,0.0,94,0.00,,,0.00,Wunderground v.1.13,2013-07-21 04:54:00,
2013-07-21 01:00:00,72.6,70.8,30.00,SE,142,0.0,0.0,94,0.00,,,0.00,Wunderground v.1.13,2013-07-21 05:00:00,
2013-07-21 01:06:00,72.6,70.8,30.00,SE,142,0.0,0.0,94,0.00,,,0.00,Wunderground v.1.13,2013-07-21 05:06:00,
2013-07-21 01:11:00,72.6,70.8,29.99,SE,142,0.0,0.0,94,0.00,,,0.00,Wunderground v.1.13,2013-07-21 05:11:00,
2013-07-21 01:17:00,72.6,70.8,29.99,SSE,148,0.0,3.0,94,0.00,,,0.00,Wunderground v.1.13,2013-07-21 05:17:00,
2013-07-21 01:23:00,72.7,70.9,29.99,SSE,148,2.0,4.0,94,0.00,,,0.00,Wunderground v.1.13,2013-07-21 05:23:00,
2013-07-21 01:28:00,72.8,71.0,29.99,SSE,149,2.0,2.0,94,0.00,,,0.00,Wunderground v.1.13,2013-07-21 05:28:00,
2013-07-21 01:33:00,72.9,71.1,29.98,SSE,149,1.0,2.0,94,0.00,,,0.00,Wunderground v.1.13,2013-07-21 05:33:00,
2013-07-21 01:39:00,72.9,71.1,29.98,SSE,149,1.0,5.0,94,0.00,,,0.00,Wunderground v.1.13,2013-07-21 05:39:00,
2013-07-21 01:45:00,72.9,71.1,29.98,SSE,149,1.0,1.0,94,0.00,,,0.00,Wunderground v.1.13,2013-07-21 05:45:00,
2013-07-21 01:51:00,72.8,71.0,29.98,SSE,149,0.0,2.0,94,0.00,,,0.00,Wunderground v.1.13,2013-07-21 05:51:00,
2013-07-21 01:57:00,72.8,70.7,29.98,SSE,149,0.0,0.0,93,0.00,,,0.00,Wunderground v.1.13,2013-07-21 05:57:00,
2013-07-21 02:03:00,72.9,70.8,29.98,SSE,149,0.0,0.0,93,0.00,,,0.00,Wunderground v.1.13,2013-07-21 06:03:00,
2013-07-21 02:08:00,72.9,70.8,29.98,SSE,149,0.0,0.0,93,0.00,,,0.00,Wunderground v.1.13,2013-07-21 06:08:00,
2013-07-21 02:14:00,72.9,70.4,29.98,SSE,149,0.0,0.0,92,0.00,,,0.00,Wunderground v.1.13,2013-07-21 06:14:00,
2013-07-21 02:20:00,72.9,70.4,29.98,SSE,149,0.0,0.0,92,0.00,,,0.00,Wunderground v.1.13,2013-07-21 06:20:00,
2013-07-21 02:25:00,72.9,70.4,29.98,SSE,149,0.0,0.0,92,0.00,,,0.00,Wunderground v.1.13,2013-07-21 06:25:00,
2013-07-21 02:31:00,72.9,70.4,29.98,SSE,149,0.0,0.0,92,0.00,,,0.00,Wunderground v.1.13,2013-07-21 06:31:00,
2013-07-21 02:36:00,72.8,70.3,29.98,SSE,149,0.0,2.0,92,0.00,,,0.00,Wunderground v.1.13,2013-07-21 06:36:00,
2013-07-21 02:41:00,72.7,70.2,29.98,SSE,149,0.0,1.0,92,0.00,,,0.00,Wunderground v.1.13,2013-07-21 06:41:00,
2013-07-21 02:47:00,72.6,70.1,29.98,SSE,149,0.0,1.0,92,0.00,,,0.00,Wunderground v.1.13,2013-07-21 06:47:00,
2013-07-21 02:52:00,72.5,70.0,29.98,SSE,149,0.0,1.0,92,0.00,,,0.00,Wunderground v.1.13,2013-07-21 06:52:00,
2013-07-21 02:58:00,72.4,69.9,29.99,SSE,149,0.0,1.0,92,0.00,,,0.00,Wunderground v.1.13,2013-07-21 06:58:00,
2013-07-21 03:04:00,72.5,70.0,29.98,SSE,149,0.0,0.0,92,0.00,,,0.00,Wunderground v.1.13,2013-07-21 07:04:00,
2013-07-21 03:10:00,72.4,69.9,29.98,SSE,149,0.0,1.0,92,0.00,,,0.00,Wunderground v.1.13,2013-07-21 07:10:00,
2013-07-21 03:15:00,72.4,69.9,29.98,SSE,149,0.0,0.0,92,0.00,,,0.00,Wunderground v.1.13,2013-07-21 07:15:00,
2013-07-21 03:21:00,72.4,69.9,29.98,SSE,149,0.0,0.0,92,0.00,,,0.00,Wunderground v.1.13,2013-07-21 07:21:00,
2013-07-21 03:26:00,72.3,69.8,29.98,SSE,149,0.0,0.0,92,0.00,,,0.00,Wunderground v.1.13,2013-07-21 07:26:00,
2013-07-21 03:31:00,72.2,69.7,29.97,SSE,149,0.0,0.0,92,0.00,,,0.00,Wunderground v.1.13,2013-07-21 07:31:00,
2013-07-21 03:37:00,72.1,69.6,29.98,SSE,149,0.0,0.0,92,0.00,,,0.00,Wunderground v.1.13,2013-07-21 07:37:00,
2013-07-21 03:43:00,72.0,69.5,29.97,SSE,149,0.0,0.0,92,0.00,,,0.00,Wunderground v.1.13,2013-07-21 07:43:00,
2013-07-21 03:48:00,71.9,69.4,29.97,SSE,149,0.0,0.0,92,0.00,,,0.00,Wunderground v.1.13,2013-07-21 07:48:00,
2013-07-21 03:54:00,71.8,69.3,29.97,SSE,149,0.0,0.0,92,0.00,,,0.00,Wunderground v.1.13,2013-07-21 07:54:00,
2013-07-21 04:00:00,71.7,69.3,29.97,SSE,149,0.0,0.0,92,0.00,,,0.00,Wunderground v.1.13,2013-07-21 08:00:00,
2013-07-21 04:05:00,71.6,69.2,29.97,SSE,149,0.0,0.0,92,0.00,,,0.00,Wunderground v.1.13,2013-07-21 08:05:00,
2013-07-21 04:11:00,71.4,69.0,29.96,SSE,149,0.0,0.0,92,0.00,,,0.00,Wunderground v.1.13,2013-07-21 08:11:00,
2013-07-21 04:16:00,71.3,68.9,29.96,SSE,149,0.0,0.0,92,0.00,,,0.00,Wunderground v.1.13,2013-07-21 08:16:00,
2013-07-21 04:22:00,71.3,68.9,29.96,SSE,149,0.0,0.0,92,0.00,,,0.00,Wunderground v.1.13,2013-07-21 08:22:00,
2013-07-21 04:28:00,71.1,69.0,29.96,SSE,149,0.0,0.0,93,0.00,,,0.00,Wunderground v.1.13,2013-07-21 08:28:00,
2013-07-21 04:34:00,71.0,68.9,29.96,SSE,149,0.0,0.0,93,0.00,,,0.00,Wunderground v.1.13,2013-07-21 08:34:00,
2013-07-21 04:39:00,70.9,68.8,29.96,SSE,149,0.0,0.0,93,0.00,,,0.00,Wunderground v.1.13,2013-07-21 08:39:00,
2013-07-21 04:45:00,70.8,68.7,29.96,SSE,149,0.0,0.0,93,0.00,,,0.00,Wunderground v.1.13,2013-07-21 08:45:00,
2013-07-21 04:51:00,70.8,68.7,29.96,SSE,149,0.0,0.0,93,0.00,,,0.00,Wunderground v.1.13,2013-07-21 08:51:00,
2013-07-21 04:56:00,70.8,69.0,29.97,SSE,149,0.0,0.0,94,0.00,,,0.00,Wunderground v.1.13,2013-07-21 08:56:00,
2013-07-21 05:02:00,70.7,68.9,29.97,SSE,149,0.0,0.0,94,0.00,,,0.00,Wunderground v.1.13,2013-07-21 09:02:00,
2013-07-21 05:08:00,70.6,68.8,29.96,SSE,149,0.0,0.0,94,0.00,,,0.00,Wunderground v.1.13,2013-07-21 09:08:00,
2013-07-21 05:13:00,70.5,68.7,29.97,SSE,149,0.0,0.0,94,0.00,,,0.00,Wunderground v.1.13,2013-07-21 09:13:00,
2013-07-21 05:19:00,70.4,68.6,29.97,SSE,149,0.0,0.0,94,0.00,,,0.00,Wunderground v.1.13,2013-07-21 09:19:00,
2013-07-21 05:25:00,70.3,68.5,29.97,SSE,149,0.0,0.0,94,0.00,,,0.00,Wunderground v.1.13,2013-07-21 09:25:00,
2013-07-21 05:30:00,70.2,68.4,29.97,SSE,149,0.0,0.0,94,0.00,,,0.00,Wunderground v.1.13,2013-07-21 09:30:00,
2013-07-21 05:35:00,70.1,68.3,29.97,SSE,149,0.0,0.0,94,0.00,,,0.00,Wunderground v.1.13,2013-07-21 09:35:00,
2013-07-21 05:41:00,69.9,68.1,29.98,SSE,149,0.0,0.0,94,0.00,,,0.00,Wunderground v.1.13,2013-07-21 09:41:00,
2013-07-21 05:46:00,69.8,68.0,29.98,SSE,149,0.0,0.0,94,0.00,,,0.00,Wunderground v.1.13,2013-07-21 09:46:00,
2013-07-21 05:52:00,69.7,67.9,29.98,SSE,149,0.0,0.0,94,0.00,,,0.00,Wunderground v.1.13,2013-07-21 09:52:00,
2013-07-21 05:57:00,69.6,67.8,29.98,SSE,149,0.0,0.0,94,0.00,,,0.00,Wunderground v.1.13,2013-07-21 09:57:00,
2013-07-21 06:03:00,69.6,67.8,29.98,SSE,149,0.0,0.0,94,0.00,,,0.00,Wunderground v.1.13,2013-07-21 10:03:00,
2013-07-21 06:08:00,69.5,67.7,29.98,SSE,149,0.0,0.0,94,0.00,,,0.00,Wunderground v.1.13,2013-07-21 10:08:00,
2013-07-21 06:14:00,69.5,68.0,29.98,SSE,149,0.0,0.0,95,0.00,,,0.00,Wunderground v.1.13,2013-07-21 10:14:00,
2013-07-21 06:20:00,69.4,67.6,29.98,SSE,149,0.0,0.0,94,0.00,,,0.00,Wunderground v.1.13,2013-07-21 10:20:00,
2013-07-21 06:25:00,69.4,67.9,29.99,SSE,149,0.0,0.0,95,0.00,,,0.00,Wunderground v.1.13,2013-07-21 10:25:00,
2013-07-21 06:31:00,69.4,67.9,29.99,SSE,149,0.0,0.0,95,0.00,,,0.00,Wunderground v.1.13,2013-07-21 10:31:00,
2013-07-21 06:37:00,69.3,67.8,29.99,SSE,149,0.0,0.0,95,0.00,,,0.00,Wunderground v.1.13,2013-07-21 10:37:00,
2013-07-21 06:42:00,69.2,67.7,29.99,SSW,201,0.0,0.0,95,0.00,,,0.00,Wunderground v.1.13,2013-07-21 10:42:00,
2013-07-21 06:48:00,69.1,67.6,29.99,SSW,201,0.0,0.0,95,0.00,,,0.00,Wunderground v.1.13,2013-07-21 10:48:00,
2013-07-21 06:54:00,69.0,67.5,30.00,SSW,201,0.0,0.0,95,0.00,,,0.00,Wunderground v.1.13,2013-07-21 10:54:00,
2013-07-21 06:59:00,68.9,67.4,30.00,SSW,201,0.0,0.0,95,0.00,,,0.00,Wunderground v.1.13,2013-07-21 10:59:00,
2013-07-21 07:04:00,69.0,67.5,30.00,SSW,201,0.0,0.0,95,0.00,,,0.00,Wunderground v.1.13,2013-07-21 11:04:00,
2013-07-21 07:10:00,69.0,67.5,30.00,SSW,201,0.0,0.0,95,0.00,,,0.00,Wunderground v.1.13,2013-07-21 11:10:00,
2013-07-21 07:15:00,69.0,67.8,30.00,SSW,201,0.0,0.0,96,0.00,,,0.00,Wunderground v.1.13,2013-07-21 11:15:00,
2013-07-21 07:21:00,69.1,67.9,30.00,SSW,201,0.0,0.0,96,0.00,,,0.00,Wunderground v.1.13,2013-07-21 11:21:00,
2013-07-21 07:27:00,69.2,68.0,30.00,SSW,201,0.0,0.0,96,0.00,,,0.00,Wunderground v.1.13,2013-07-21 11:27:00,
2013-07-21 07:32:00,69.3,68.1,30.01,SSW,201,0.0,0.0,96,0.00,,,0.00,Wunderground v.1.13,2013-07-21 11:32:00,
2013-07-21 07:37:00,69.4,68.2,30.01,SSW,201,0.0,0.0,96,0.00,,,0.00,Wunderground v.1.13,2013-07-21 11:37:00,
2013-07-21 07:43:00,69.5,68.3,30.01,SSW,201,0.0,0.0,96,0.00,,,0.00,Wunderground v.1.13,2013-07-21 11:43:00,
2013-07-21 07:49:00,69.7,68.8,30.01,SSW,201,0.0,0.0,97,0.00,,,0.00,Wunderground v.1.13,2013-07-21 11:49:00,
2013-07-21 07:54:00,69.8,68.9,30.01,SSW,201,0.0,0.0,97,0.00,,,0.00,Wunderground v.1.13,2013-07-21 11:54:00,
2013-07-21 08:00:00,70.2,69.3,30.01,SSW,201,0.0,0.0,97,0.00,,,0.00,Wunderground v.1.13,2013-07-21 12:00:00,
2013-07-21 08:06:00,70.6,69.7,30.02,SSW,201,0.0,0.0,97,0.00,,,0.00,Wunderground v.1.13,2013-07-21 12:06:00,
2013-07-21 08:11:00,71.2,70.6,30.02,SSW,201,0.0,0.0,98,0.00,,,0.00,Wunderground v.1.13,2013-07-21 12:11:00,
2013-07-21 08:17:00,71.4,70.5,30.02,SSW,201,0.0,4.0,97,0.00,,,0.00,Wunderground v.1.13,2013-07-21 12:17:00,
2013-07-21 08:23:00,71.9,71.3,30.02,SSW,207,1.0,2.0,98,0.00,,,0.00,Wunderground v.1.13,2013-07-21 12:23:00,
2013-07-21 08:28:00,72.4,71.5,30.02,SW,231,3.0,7.0,97,0.00,,,0.00,Wunderground v.1.13,2013-07-21 12:28:00,
2013-07-21 08:33:00,72.8,71.9,30.02,West,275,3.0,7.0,97,0.00,,,0.00,Wunderground v.1.13,2013-07-21 12:33:00,
2013-07-21 08:39:00,73.1,72.2,30.02,West,268,4.0,6.0,97,0.00,,,0.00,Wunderground v.1.13,2013-07-21 12:39:00,
2013-07-21 08:44:00,73.5,72.3,30.02,West,261,4.0,5.0,96,0.00,,,0.00,Wunderground v.1.13,2013-07-21 12:44:00,
2013-07-21 08:50:00,73.7,72.5,30.03,West,275,4.0,4.0,96,0.00,,,0.00,Wunderground v.1.13,2013-07-21 12:50:00,
2013-07-21 08:55:00,74.0,72.5,30.03,West,273,3.0,3.0,95,0.00,,,0.00,Wunderground v.1.13,2013-07-21 12:55:00,
2013-07-21 09:01:00,74.3,72.5,30.03,West,271,3.0,4.0,94,0.00,,,0.00,Wunderground v.1.13,2013-07-21 13:01:00,
2013-07-21 09:07:00,74.5,72.3,30.02,WSW,242,4.0,6.0,93,0.00,,,0.00,Wunderground v.1.13,2013-07-21 13:07:00,
2013-07-21 09:13:00,74.7,72.2,30.02,WSW,247,4.0,5.0,92,0.00,,,0.00,Wunderground v.1.13,2013-07-21 13:13:00,
2013-07-21 09:18:00,74.8,72.3,30.03,WSW,249,3.0,4.0,92,0.00,,,0.00,Wunderground v.1.13,2013-07-21 13:18:00,
2013-07-21 09:24:00,75.4,73.2,30.03,WSW,255,2.0,7.0,93,0.00,,,0.00,Wunderground v.1.13,2013-07-21 13:24:00,
2013-07-21 09:29:00,76.1,73.6,30.03,West,263,3.0,9.0,92,0.00,,,0.00,Wunderground v.1.13,2013-07-21 13:29:00,
2013-07-21 09:35:00,76.9,73.7,30.03,West,263,5.0,8.0,90,0.00,,,0.00,Wunderground v.1.13,2013-07-21 13:35:00,
2013-07-21 09:41:00,77.6,73.8,30.03,WSW,238,6.0,9.0,88,0.00,,,0.00,Wunderground v.1.13,2013-07-21 13:41:00,
2013-07-21 09:47:00,78.2,73.3,30.03,West,275,7.0,12.0,85,0.00,,,0.00,Wunderground v.1.13,2013-07-21 13:47:00,
2013-07-21 09:52:00,78.5,73.6,30.03,WSW,247,6.0,7.0,85,0.00,,,0.00,Wunderground v.1.13,2013-07-21 13:52:00,
2013-07-21 09:58:00,78.8,73.2,30.03,WSW,239,6.0,12.0,83,0.00,,,0.00,Wunderground v.1.13,2013-07-21 13:58:00,
2013-07-21 10:04:00,78.8,73.6,30.03,West,265,7.0,10.0,84,0.00,,,0.00,Wunderground v.1.13,2013-07-21 14:04:00,
2013-07-21 10:09:00,79.3,73.7,30.02,WSW,258,5.0,10.0,83,0.00,,,0.00,Wunderground v.1.13,2013-07-21 14:09:00,
2013-07-21 10:15:00,79.5,73.5,30.02,WSW,252,6.0,6.0,82,0.00,,,0.00,Wunderground v.1.13,2013-07-21 14:15:00,
2013-07-21 10:21:00,80.4,74.4,30.02,WSW,251,5.0,10.0,82,0.00,,,0.00,Wunderground v.1.13,2013-07-21 14:21:00,
2013-07-21 10:26:00,80.6,74.2,30.02,West,281,5.0,5.0,81,0.00,,,0.00,Wunderground v.1.13,2013-07-21 14:26:00,
2013-07-21 10:31:00,81.3,74.5,30.02,West,268,5.0,6.0,80,0.00,,,0.00,Wunderground v.1.13,2013-07-21 14:31:00,
2013-07-21 10:37:00,81.6,74.5,30.02,SW,227,4.0,8.0,79,0.00,,,0.00,Wunderground v.1.13,2013-07-21 14:37:00,
2013-07-21 10:42:00,81.2,73.7,30.02,West,259,5.0,7.0,78,0.00,,,0.00,Wunderground v.1.13,2013-07-21 14:42:00,
2013-07-21 10:48:00,80.7,73.6,30.02,West,269,5.0,8.0,79,0.00,,,0.00,Wunderground v.1.13,2013-07-21 14:48:00,
2013-07-21 10:53:00,80.4,73.7,30.03,West,274,5.0,5.0,80,0.00,,,0.00,Wunderground v.1.13,2013-07-21 14:53:00,
2013-07-21 10:59:00,80.3,73.9,30.03,West,263,3.0,6.0,81,0.00,,,0.00,Wunderground v.1.13,2013-07-21 14:59:00,
2013-07-21 11:04:00,80.1,74.1,30.02,WSW,245,3.0,5.0,82,0.00,,,0.00,Wunderground v.1.13,2013-07-21 15:04:00,
2013-07-21 11:10:00,80.0,74.0,30.02,West,261,4.0,4.0,82,0.00,,,0.00,Wunderground v.1.13,2013-07-21 15:10:00,
2013-07-21 11:15:00,80.0,73.6,30.03,WSW,248,4.0,6.0,81,0.00,,,0.00,Wunderground v.1.13,2013-07-21 15:15:00,
2013-07-21 11:21:00,79.9,73.9,30.03,West,260,4.0,4.0,82,0.00,,,0.00,Wunderground v.1.13,2013-07-21 15:21:00,
2013-07-21 11:27:00,80.3,74.3,30.03,West,277,3.0,9.0,82,0.00,,,0.00,Wunderground v.1.13,2013-07-21 15:27:00,
2013-07-21 11:32:00,80.7,74.7,30.03,WNW,286,4.0,4.0,82,0.00,,,0.00,Wunderground v.1.13,2013-07-21 15:32:00,
2013-07-21 11:37:00,80.9,74.5,30.02,WNW,291,5.0,5.0,81,0.00,,,0.00,Wunderground v.1.13,2013-07-21 15:37:00,
2013-07-21 11:43:00,80.8,74.4,30.03,WNW,283,4.0,5.0,81,0.00,,,0.00,Wunderground v.1.13,2013-07-21 15:43:00,
2013-07-21 11:48:00,80.5,74.5,30.03,West,277,4.0,10.0,82,0.00,,,0.00,Wunderground v.1.13,2013-07-21 15:48:00,
2013-07-21 11:54:00,79.6,74.3,30.03,SW,223,4.0,5.0,84,0.61,,,0.11,Wunderground v.1.13,2013-07-21 15:54:00,
2013-07-21 12:00:00,78.7,75.2,30.03,SW,223,1.0,1.0,89,0.12,,,0.12,Wunderground v.1.13,2013-07-21 16:00:00,
2013-07-21 12:05:00,79.2,76.3,30.02,WSW,249,1.0,6.0,91,0.06,,,0.12,Wunderground v.1.13,2013-07-21 16:05:00,
2013-07-21 12:11:00,79.8,76.3,30.02,West,273,3.0,3.0,89,0.04,,,0.12,Wunderground v.1.13,2013-07-21 16:11:00,
2013-07-21 12:17:00,79.8,75.2,30.02,West,267,4.0,5.0,86,0.00,,,0.12,Wunderground v.1.13,2013-07-21 16:17:00,
2013-07-21 12:22:00,79.6,75.0,30.02,West,273,3.0,5.0,86,0.00,,,0.12,Wunderground v.1.13,2013-07-21 16:22:00,
2013-07-21 12:28:00,79.5,74.9,30.03,West,269,3.0,4.0,86,0.00,,,0.12,Wunderground v.1.13,2013-07-21 16:28:00,
2013-07-21 12:33:00,79.2,74.6,30.03,NW,306,5.0,13.0,86,0.00,,,0.12,Wunderground v.1.13,2013-07-21 16:33:00,
2013-07-21 12:38:00,77.7,71.0,30.03,NNW,330,8.0,11.0,80,0.00,,,0.12,Wunderground v.1.13,2013-07-21 16:38:00,
2013-07-21 12:44:00,76.0,70.1,30.02,NW,325,8.0,9.0,82,0.00,,,0.12,Wunderground v.1.13,2013-07-21 16:44:00,
2013-07-21 12:49:00,75.2,70.0,30.02,NW,319,5.0,7.0,84,0.00,,,0.12,Wunderground v.1.13,2013-07-21 16:49:00,
2013-07-21 12:55:00,75.2,71.1,30.01,NW,319,1.0,1.0,87,0.00,,,0.12,Wunderground v.1.13,2013-07-21 16:55:00,
2013-07-21 13:01:00,76.1,71.9,30.02,North,360,1.0,3.0,87,0.00,,,0.12,Wunderground v.1.13,2013-07-21 17:01:00,
2013-07-21 13:07:00,77.1,71.9,30.02,NNE,28,1.0,2.0,84,0.00,,,0.12,Wunderground v.1.13,2013-07-21 17:07:00,
2013-07-21 13:12:00,78.1,72.2,30.01,ENE,57,1.0,4.0,82,0.00,,,0.12,Wunderground v.1.13,2013-07-21 17:12:00,
2013-07-21 13:18:00,79.0,72.3,30.01,ENE,68,2.0,4.0,80,0.00,,,0.12,Wunderground v.1.13,2013-07-21 17:18:00,
2013-07-21 13:24:00,79.7,72.2,30.01,East,82,1.0,4.0,78,0.00,,,0.12,Wunderground v.1.13,2013-07-21 17:24:00,
2013-07-21 13:29:00,80.2,72.3,30.01,East,83,1.0,1.0,77,0.00,,,0.12,Wunderground v.1.13,2013-07-21 17:29:00,
2013-07-21 13:35:00,80.7,73.2,30.01,East,83,0.0,0.0,78,0.00,,,0.12,Wunderground v.1.13,2013-07-21 17:35:00,
2013-07-21 13:41:00,82.3,74.0,30.01,East,83,0.0,0.0,76,0.00,,,0.12,Wunderground v.1.13,2013-07-21 17:41:00,
2013-07-21 13:47:00,83.4,74.6,30.00,East,83,0.0,0.0,75,0.00,,,0.12,Wunderground v.1.13,2013-07-21 17:47:00,
2013-07-21 13:52:00,83.9,74.3,30.00,East,83,0.0,0.0,73,0.00,,,0.12,Wunderground v.1.13,2013-07-21 17:52:00,
2013-07-21 13:58:00,84.7,75.1,30.00,East,83,0.0,0.0,73,0.00,,,0.12,Wunderground v.1.13,2013-07-21 17:58:00,
2013-07-21 14:03:00,84.8,75.2,30.00,East,83,0.0,3.0,73,0.00,,,0.12,Wunderground v.1.13,2013-07-21 18:03:00,
2013-07-21 14:08:00,84.7,75.5,29.99,East,96,0.0,6.0,74,0.00,,,0.12,Wunderground v.1.13,2013-07-21 18:08:00,
2013-07-21 14:14:00,84.5,74.9,29.99,East,100,1.0,1.0,73,0.00,,,0.12,Wunderground v.1.13,2013-07-21 18:14:00,
2013-07-21 14:19:00,84.3,75.1,29.98,East,100,1.0,1.0,74,0.00,,,0.12,Wunderground v.1.13,2013-07-21 18:19:00,
2013-07-21 14:24:00,84.3,75.9,29.99,East,100,0.0,0.0,76,0.00,,,0.12,Wunderground v.1.13,2013-07-21 18:24:00,
2013-07-21 14:30:00,84.6,75.4,29.99,East,100,0.0,0.0,74,0.00,,,0.12,Wunderground v.1.13,2013-07-21 18:30:00,
2013-07-21 14:36:00,84.8,75.6,29.99,East,100,0.0,0.0,74,0.00,,,0.12,Wunderground v.1.13,2013-07-21 18:36:00,
2013-07-21 14:42:00,84.6,75.4,29.99,East,100,0.0,0.0,74,0.00,,,0.12,Wunderground v.1.13,2013-07-21 18:42:00,
2013-07-21 14:47:00,84.3,75.5,30.00,East,100,0.0,0.0,75,0.00,,,0.12,Wunderground v.1.13,2013-07-21 18:47:00,
2013-07-21 14:53:00,83.6,75.2,30.02,WNW,288,2.0,14.0,76,0.00,,,0.12,Wunderground v.1.13,2013-07-21 18:53:00,
2013-07-21 14:59:00,78.7,70.5,30.03,WNW,289,13.0,21.0,76,2.91,,,0.21,Wunderground v.1.13,2013-07-21 18:59:00,
2013-07-21 15:05:00,74.2,68.7,30.03,West,281,15.0,15.0,83,1.31,,,0.39,Wunderground v.1.13,2013-07-21 19:05:00,
2013-07-21 15:10:00,72.4,68.3,30.02,NNW,327,10.0,10.0,87,2.26,,,0.56,Wunderground v.1.13,2013-07-21 19:10:00,
2013-07-21 15:16:00,71.3,67.9,30.01,NW,326,6.0,6.0,89,0.95,,,0.70,Wunderground v.1.13,2013-07-21 19:16:00,
2013-07-21 15:21:00,70.7,67.9,30.01,NW,325,4.0,4.0,91,0.48,,,0.75,Wunderground v.1.13,2013-07-21 19:21:00,
2013-07-21 15:27:00,70.6,68.2,30.00,NW,325,1.0,3.0,92,0.23,,,0.78,Wunderground v.1.13,2013-07-21 19:27:00,
2013-07-21 15:32:00,70.5,68.4,30.01,NW,325,0.0,1.0,93,0.13,,,0.79,Wunderground v.1.13,2013-07-21 19:32:00,
2013-07-21 15:37:00,70.4,68.3,30.01,NW,325,0.0,0.0,93,0.12,,,0.80,Wunderground v.1.13,2013-07-21 19:37:00,
2013-07-21 15:43:00,70.3,68.5,30.00,NW,325,0.0,0.0,94,0.07,,,0.81,Wunderground v.1.13,2013-07-21 19:43:00,
2013-07-21 15:49:00,70.4,68.6,30.00,NW,325,0.0,0.0,94,0.07,,,0.81,Wunderground v.1.13,2013-07-21 19:49:00,
2013-07-21 15:54:00,70.3,68.5,30.00,NW,325,0.0,0.0,94,0.04,,,0.81,Wunderground v.1.13,2013-07-21 19:54:00,
2013-07-21 16:00:00,70.4,68.9,30.00,NW,325,0.0,0.0,95,0.04,,,0.82,Wunderground v.1.13,2013-07-21 20:00:00,
2013-07-21 16:06:00,70.5,69.0,30.00,NW,325,0.0,0.0,95,0.04,,,0.82,Wunderground v.1.13,2013-07-21 20:06:00,
2013-07-21 16:12:00,70.6,69.1,30.01,NW,325,0.0,0.0,95,0.04,,,0.82,Wunderground v.1.13,2013-07-21 20:12:00,
2013-07-21 16:17:00,70.7,69.2,30.00,NW,325,1.0,1.0,95,0.04,,,0.83,Wunderground v.1.13,2013-07-21 20:17:00,
2013-07-21 16:23:00,70.6,69.1,30.00,NW,325,0.0,0.0,95,0.04,,,0.83,Wunderground v.1.13,2013-07-21 20:23:00,
2013-07-21 16:28:00,70.8,69.6,30.00,NW,325,0.0,0.0,96,0.04,,,0.83,Wunderground v.1.13,2013-07-21 20:28:00,
2013-07-21 16:33:00,71.0,69.8,30.00,NW,325,0.0,0.0,96,0.00,,,0.83,Wunderground v.1.13,2013-07-21 20:33:00,
2013-07-21 16:39:00,71.3,70.1,30.00,NW,323,0.0,0.0,96,0.00,,,0.83,Wunderground v.1.13,2013-07-21 20:39:00,
2013-07-21 16:44:00,71.4,70.2,30.00,WSW,254,1.0,4.0,96,0.00,,,0.83,Wunderground v.1.13,2013-07-21 20:44:00,
2013-07-21 16:50:00,71.4,70.2,30.00,South,188,2.0,2.0,96,0.00,,,0.83,Wunderground v.1.13,2013-07-21 20:50:00,
2013-07-21 16:56:00,71.4,70.2,29.99,South,186,1.0,2.0,96,0.00,,,0.83,Wunderground v.1.13,2013-07-21 20:56:00,
2013-07-21 17:01:00,71.5,70.3,29.99,South,182,2.0,2.0,96,0.00,,,0.83,Wunderground v.1.13,2013-07-21 21:01:00,
2013-07-21 17:07:00,71.6,70.4,29.99,SSE,159,2.0,2.0,96,0.00,,,0.83,Wunderground v.1.13,2013-07-21 21:07:00,
2013-07-21 17:13:00,72.0,70.8,29.98,South,172,1.0,2.0,96,0.00,,,0.83,Wunderground v.1.13,2013-07-21 21:13:00,
2013-07-21 17:18:00,72.2,71.0,29.98,South,171,2.0,3.0,96,0.00,,,0.83,Wunderground v.1.13,2013-07-21 21:18:00,
2013-07-21 17:24:00,72.4,71.2,29.98,SSE,165,1.0,3.0,96,0.00,,,0.83,Wunderground v.1.13,2013-07-21 21:24:00,
2013-07-21 17:30:00,72.6,71.4,29.98,SSE,163,1.0,3.0,96,0.00,,,0.83,Wunderground v.1.13,2013-07-21 21:30:00,
2013-07-21 17:35:00,72.8,71.6,29.97,SSE,161,1.0,1.0,96,0.00,,,0.83,Wunderground v.1.13,2013-07-21 21:35:00,
2013-07-21 17:40:00,73.1,71.9,29.97,SSW,192,2.0,4.0,96,0.00,,,0.83,Wunderground v.1.13,2013-07-21 21:40:00,
2013-07-21 17:46:00,73.3,71.8,29.96,SSE,147,3.0,3.0,95,0.00,,,0.83,Wunderground v.1.13,2013-07-21 21:46:00,
2013-07-21 17:51:00,73.7,72.2,29.96,SE,144,2.0,3.0,95,0.00,,,0.83,Wunderground v.1.13,2013-07-21 21:51:00,
2013-07-21 17:57:00,73.9,72.1,29.96,SSE,161,3.0,3.0,94,0.00,,,0.83,Wunderground v.1.13,2013-07-21 21:57:00,
2013-07-21 18:03:00,74.0,71.8,29.96,SSE,161,1.0,2.0,93,0.00,,,0.83,Wunderground v.1.13,2013-07-21 22:03:00,
2013-07-21 18:09:00,74.1,71.6,29.96,SSE,168,0.0,1.0,92,0.00,,,0.83,Wunderground v.1.13,2013-07-21 22:09:00,
2013-07-21 18:14:00,74.0,71.2,29.96,South,178,1.0,4.0,91,0.00,,,0.83,Wunderground v.1.13,2013-07-21 22:14:00,
2013-07-21 18:20:00,73.9,71.1,29.96,South,178,2.0,2.0,91,0.00,,,0.83,Wunderground v.1.13,2013-07-21 22:20:00,
2013-07-21 18:25:00,73.8,71.0,29.97,South,178,1.0,2.0,91,0.00,,,0.83,Wunderground v.1.13,2013-07-21 22:25:00,
2013-07-21 18:31:00,73.7,70.9,29.97,South,178,0.0,0.0,91,0.00,,,0.83,Wunderground v.1.13,2013-07-21 22:31:00,
2013-07-21 18:36:00,73.8,71.0,29.96,South,178,0.0,0.0,91,0.00,,,0.83,Wunderground v.1.13,2013-07-21 22:36:00,
2013-07-21 18:42:00,73.8,71.0,29.96,South,178,0.0,0.0,91,0.00,,,0.83,Wunderground v.1.13,2013-07-21 22:42:00,
2013-07-21 18:47:00,73.9,71.1,29.96,South,178,0.0,0.0,91,0.00,,,0.83,Wunderground v.1.13,2013-07-21 22:47:00,
2013-07-21 18:53:00,74.1,71.3,29.95,South,178,0.0,0.0,91,0.00,,,0.83,Wunderground v.1.13,2013-07-21 22:53:00,
2013-07-21 18:58:00,74.1,71.3,29.95,South,178,0.0,0.0,91,0.00,,,0.83,Wunderground v.1.13,2013-07-21 22:58:00,
2013-07-21 19:03:00,74.2,71.1,29.95,South,178,0.0,0.0,90,0.00,,,0.83,Wunderground v.1.13,2013-07-21 23:03:00,
2013-07-21 19:09:00,74.3,71.2,29.95,South,178,0.0,0.0,90,0.00,,,0.83,Wunderground v.1.13,2013-07-21 23:09:00,
2013-07-21 19:14:00,74.4,71.3,29.95,South,178,0.0,0.0,90,0.00,,,0.83,Wunderground v.1.13,2013-07-21 23:14:00,
2013-07-21 19:20:00,74.4,71.3,29.95,South,178,0.0,0.0,90,0.00,,,0.83,Wunderground v.1.13,2013-07-21 23:20:00,
2013-07-21 19:26:00,74.5,71.0,29.95,South,178,0.0,0.0,89,0.00,,,0.83,Wunderground v.1.13,2013-07-21 23:26:00,
2013-07-21 19:31:00,74.7,71.2,29.95,South,178,0.0,0.0,89,0.00,,,0.83,Wunderground v.1.13,2013-07-21 23:31:00,
2013-07-21 19:37:00,74.7,70.9,29.95,South,178,0.0,0.0,88,0.00,,,0.83,Wunderground v.1.13,2013-07-21 23:37:00,
2013-07-21 19:43:00,74.7,70.9,29.95,South,178,0.0,0.0,88,0.00,,,0.83,Wunderground v.1.13,2013-07-21 23:43:00,
2013-07-21 19:49:00,74.9,71.4,29.95,South,178,0.0,0.0,89,0.00,,,0.83,Wunderground v.1.13,2013-07-21 23:49:00,
2013-07-21 19:54:00,75.0,71.5,29.95,South,178,0.0,0.0,89,0.00,,,0.83,Wunderground v.1.13,2013-07-21 23:54:00,
2013-07-21 20:00:00,74.9,71.8,29.95,South,178,0.0,0.0,90,0.00,,,0.83,Wunderground v.1.13,2013-07-22 00:00:00,
2013-07-21 20:06:00,74.8,71.7,29.96,South,178,0.0,0.0,90,0.00,,,0.83,Wunderground v.1.13,2013-07-22 00:06:00,
2013-07-21 20:12:00,74.7,71.6,29.96,South,178,0.0,0.0,90,0.00,,,0.83,Wunderground v.1.13,2013-07-22 00:12:00,
2013-07-21 20:17:00,74.4,71.3,29.96,South,178,0.0,0.0,90,0.00,,,0.83,Wunderground v.1.13,2013-07-22 00:17:00,
2013-07-21 20:23:00,74.1,71.0,29.96,South,178,0.0,0.0,90,0.00,,,0.83,Wunderground v.1.13,2013-07-22 00:23:00,
2013-07-21 20:28:00,74.0,71.2,29.96,South,178,0.0,0.0,91,0.00,,,0.83,Wunderground v.1.13,2013-07-22 00:28:00,
2013-07-21 20:33:00,73.8,71.0,29.97,South,178,0.0,0.0,91,0.00,,,0.83,Wunderground v.1.13,2013-07-22 00:33:00,
2013-07-21 20:39:00,73.7,70.9,29.97,South,178,0.0,0.0,91,0.00,,,0.83,Wunderground v.1.13,2013-07-22 00:39:00,
2013-07-21 20:44:00,73.5,71.0,29.98,South,178,0.0,0.0,92,0.00,,,0.83,Wunderground v.1.13,2013-07-22 00:44:00,
2013-07-21 20:50:00,73.4,70.9,29.98,South,178,0.0,0.0,92,0.00,,,0.83,Wunderground v.1.13,2013-07-22 00:50:00,
2013-07-21 20:56:00,73.2,70.7,29.99,South,178,0.0,0.0,92,0.00,,,0.83,Wunderground v.1.13,2013-07-22 00:56:00,
2013-07-21 21:01:00,73.0,70.5,29.99,South,178,0.0,0.0,92,0.00,,,0.83,Wunderground v.1.13,2013-07-22 01:01:00,
2013-07-21 21:07:00,72.9,70.4,30.00,South,178,0.0,0.0,92,0.00,,,0.83,Wunderground v.1.13,2013-07-22 01:07:00,
2013-07-21 21:13:00,72.7,70.6,30.00,South,178,0.0,0.0,93,0.00,,,0.83,Wunderground v.1.13,2013-07-22 01:13:00,
2013-07-21 21:18:00,72.6,70.5,30.00,South,178,0.0,0.0,93,0.00,,,0.83,Wunderground v.1.13,2013-07-22 01:18:00,
2013-07-21 21:24:00,72.4,70.3,30.00,South,178,0.0,0.0,93,0.00,,,0.83,Wunderground v.1.13,2013-07-22 01:24:00,
2013-07-21 21:30:00,72.4,70.6,30.00,South,178,0.0,0.0,94,0.00,,,0.83,Wunderground v.1.13,2013-07-22 01:30:00,
2013-07-21 21:35:00,72.3,70.5,30.00,South,178,0.0,0.0,94,0.00,,,0.83,Wunderground v.1.13,2013-07-22 01:35:00,
2013-07-21 21:40:00,72.2,70.4,30.00,South,178,0.0,0.0,94,0.00,,,0.83,Wunderground v.1.13,2013-07-22 01:40:00,
2013-07-21 21:46:00,72.1,70.3,30.00,South,178,0.0,0.0,94,0.00,,,0.83,Wunderground v.1.13,2013-07-22 01:46:00,
2013-07-21 21:51:00,72.0,70.2,30.00,South,178,0.0,0.0,94,0.00,,,0.83,Wunderground v.1.13,2013-07-22 01:51:00,
2013-07-21 21:57:00,71.9,70.1,30.00,South,178,0.0,0.0,94,0.00,,,0.83,Wunderground v.1.13,2013-07-22 01:57:00,
2013-07-21 22:02:00,71.8,70.0,30.00,South,178,0.0,0.0,94,0.00,,,0.83,Wunderground v.1.13,2013-07-22 02:02:00,
2013-07-21 22:08:00,71.7,69.9,30.00,South,178,0.0,0.0,94,0.00,,,0.83,Wunderground v.1.13,2013-07-22 02:08:00,
2013-07-21 22:13:00,71.6,69.8,30.00,South,178,0.0,0.0,94,0.00,,,0.83,Wunderground v.1.13,2013-07-22 02:13:00,
2013-07-21 22:19:00,71.5,69.7,30.00,South,178,0.0,0.0,94,0.00,,,0.83,Wunderground v.1.13,2013-07-22 02:19:00,
2013-07-21 22:24:00,71.4,69.9,30.00,South,178,0.0,0.0,95,0.00,,,0.83,Wunderground v.1.13,2013-07-22 02:24:00,
2013-07-21 22:30:00,71.3,69.8,30.00,South,178,0.0,0.0,95,0.00,,,0.83,Wunderground v.1.13,2013-07-22 02:30:00,
2013-07-21 22:35:00,71.3,69.8,30.01,South,178,0.0,0.0,95,0.00,,,0.83,Wunderground v.1.13,2013-07-22 02:35:00,
2013-07-21 22:40:00,71.3,69.8,30.00,South,178,0.0,0.0,95,0.00,,,0.83,Wunderground v.1.13,2013-07-22 02:40:00,
2013-07-21 22:46:00,71.2,69.7,30.00,South,178,0.0,0.0,95,0.00,,,0.83,Wunderground v.1.13,2013-07-22 02:46:00,
2013-07-21 22:52:00,71.2,69.7,30.00,South,178,0.0,0.0,95,0.00,,,0.83,Wunderground v.1.13,2013-07-22 02:52:00,
2013-07-21 22:56:00,71.1,69.6,30.01,South,178,0.0,0.0,95,0.00,,,0.83,Wunderground v.1.13,2013-07-22 02:56:00,
2013-07-21 23:02:00,71.0,69.8,30.01,South,178,0.0,0.0,96,0.00,,,0.83,Wunderground v.1.13,2013-07-22 03:02:00,
2013-07-21 23:07:00,71.0,69.8,30.01,South,178,0.0,0.0,96,0.00,,,0.83,Wunderground v.1.13,2013-07-22 03:07:00,
2013-07-21 23:13:00,70.9,69.7,30.01,South,178,0.0,0.0,96,0.00,,,0.83,Wunderground v.1.13,2013-07-22 03:13:00,
2013-07-21 23:18:00,70.8,69.6,30.01,South,178,0.0,0.0,96,0.00,,,0.83,Wunderground v.1.13,2013-07-22 03:18:00,
2013-07-21 23:24:00,70.8,69.6,30.01,South,178,0.0,0.0,96,0.00,,,0.83,Wunderground v.1.13,2013-07-22 03:24:00,
2013-07-21 23:30:00,70.7,69.5,30.01,South,178,0.0,0.0,96,0.00,,,0.83,Wunderground v.1.13,2013-07-22 03:30:00,
2013-07-21 23:35:00,70.7,69.5,30.01,South,178,0.0,0.0,96,0.00,,,0.83,Wunderground v.1.13,2013-07-22 03:35:00,
2013-07-21 23:41:00,70.6,69.4,30.01,South,178,0.0,0.0,96,0.00,,,0.83,Wunderground v.1.13,2013-07-22 03:41:00,
2013-07-21 23:47:00,70.6,69.4,30.01,South,178,0.0,0.0,96,0.00,,,0.83,Wunderground v.1.13,2013-07-22 03:47:00,
2013-07-21 23:52:00,70.6,69.4,30.02,South,178,0.0,0.0,96,0.00,,,0.83,Wunderground v.1.13,2013-07-22 03:52:00,
2013-07-21 23:58:00,70.5,69.3,30.02,South,178,0.0,0.0,96,0.00,,,0.83,Wunderground v.1.13,2013-07-22 03:58:00,